SCP
-0 -0 -0 -0 -0 -0 -0 -0 -0 -0 -0 -0 -0 0 0 0 0 0 0 0 0 0 0 0 0 -0 -0 -0 -0 -0 0 0 -0 -0 -0 -0 -0 -0 -0 0 0 -0 -0
-0 -0 -0 -0 -0 -0 -0 -0 -0 -0 -0 -0 -0 -0 0 0 0 0 0 0 0 0 0 0 -0 0 0 -0 0 -0 0 0 -0 -0 -0 0 -0 0 -0 -0 -0 -0 -0
-0 -0 -0 -0 -1 -0 -0 -0 -0 -0 -0 -0 -0 0 0 0 0 0 0 0 0 0 0 0 0 0 0 0 -0 0 0 0 -0 0 0 0 0 0 0 0 0 -0 -0
-0 -0 -0 -0 -0 -0 -0 -0 -0 -0 -0 -0 -0 -0 0 0 0 0 -0 0 0 0 0 0 0 0 -0 -0 -0 -0 -0 -0 -0 -0 0 0 0 0 0 0 0 -0 0
0 0 0 -0 -0 -0 -0 -0 -0 -0 -0 -0 -0 -0 0 0 0 -0 -0 0 0 0 0 0 0 0 -0 -0 -0 -0 -0 -0 -0 -0 0 0 0 0 0 0 0 0 0
-0 0 0 0 -0 -0 -0 -0 -0 -0 -0 -0 -0 0 0 0 0 0 0 0 0 0 0 0 0 -0 -0 -0 -0 -0 -0 -0 -0 0 0 0 0 0 -0 -0 -0 0 0
-0 -0 -0 -0 0 0 0 -0 0 0 0 0 0 0 0 0 0 0 0 0 0 0 0 0 0 -0 0 -0 -0 -0 -0 -0 0 0 0 0 0 0 -0 -0 -0 -0 -0
-0 -0 0 -0 0 -0 -0 0 0 0 0 0 0 0 0 0 0 0 0 0 0 0 0 0 0 -0 -0 -0 -0 -0 -0 0 0 0 0 0 0 0 0 0 -0 -0 -0
0 0 0 0 0 0 -0 0 0 0 0 0 0 0 0 0 0 0 0 0 0 0 0 0 0 0 0 0 0 0 0 0 0 0 0 0 0 0 0 0 0 0 0
0 0 0 0 0 0 0 0 0 0 0 0 0 0 0 0 0 0 0 0 0 0 0 0 0 0 0 0 0 0 0 0 0 0 0 0 0 0 0 0 0 0 0
0 0 0 0 0 0 0 0 0 0 0 0 0 0 0 0 0 0 0 0 0 0 0 0 0 0 0 0 0 0 0 0 0 0 0 0 0 0 0 0 0 0 0
0 0 0 0 0 0 0 0 0 0 0 0 0 0 0 0 0 0 0 0 0 0 0 0 0 0 0 0 0 0 0 0 0 0 0 0 0 0 0 0 0 0 0
0 0 0 0 0 0 0 0 0 0 0 0 0 0 0 0 0 0 0 0 0 0 0 0 0 0 0 0 0 0 0 0 0 0 0 0 0 0 0 0 0 0 0
0 0 0 0 0 0 0 0 0 0 0 0 0 0 0 0 0 0 0 0 0 0 0 0 0 0 0 0 0 0 0 0 0 0 0 0 0 0 0 0 0 0 0
0 0 0 0 0 0 0 0 0 0 0 0 0 0 0 0 0 0 0 0 0 0 0 0 0 0 0 0 0 0 0 0 0 0 0 0 0 0 0 0 0 0 0
0 0 0 0 0 0 0 0 0 0 0 0 0 0 0 0 0 0 0 0 0 0 0 0 0 0 0 0 0 0 0 0 0 0 0 0 0 0 0 0 0 0 0
0 0 0 0 0 0 0 0 0 0 0 0 0 0 0 0 0 0 0 0 0 0 0 0 0 0 0 0 0 0 0 0 0 0 0 0 0 0 0 0 0 0 0
0 0 0 0 0 0 0 0 0 0 0 0 0 0 0 0 0 0 0 0 0 0 0 0 0 0 0 0 0 0 0 0 0 0 0 0 0 0 0 0 0 0 0
0 0 0 0 0 0 0 0 0 0 0 0 0 0 0 0 0 0 0 0 0 0 0 0 0 0 0 0 0 0 0 0 0 0 0 0 0 0 0 0 0 0 0
0 0 0 0 0 0 0 0 0 0 0 0 0 0 0 0 0 0 0 0 0 0 0 0 0 0 0 0 0 0 0 0 0 0 0 0 0 0 0 0 0 0 0
0 0 0 0 0 0 0 0 0 0 0 0 0 0 0 0 0 0 0 0 0 0 0 0 0 0 0 0 0 0 0 0 0 0 0 0 0 0 0 0 0 0 0
0 0 0 0 0 0 0 0 0 0 0 0 0 0 0 0 0 0 0 0 0 0 0 0 0 0 0 0 0 0 0 0 0 0 0 0 0 0 0 0 0 0 0
-0 0 0 0 0 0 0 0 0 0 0 0 0 0 0 0 0 0 0 0 0 0 0 0 0 0 0 0 0 0 0 0 0 0 0 0 0 0 0 0 0 0 0
-0 -0 0 0 0 0 0 0 0 0 0 0 0 0 0 0 0 0 0 0 0 0 0 0 0 0 0 0 0 0 0 0 0 0 0 0 0 0 0 0 0 0 0
0 0 0 0 0 0 0 0 0 0 0 0 0 0 0 0 0 0 0 0 0 0 0 0 0 0 0 0 0 0 0 0 0 0 0 0 0 0 0 0 0 0 0
0 0 0 0 0 0 0 0 0 0 0 0 0 0 0 0 0 0 0 0 0 0 0 0 0 0 0 0 0 0 0 0 0 0 0 0 0 0 0 0 0 0 0
Wind_Speed_500mb
61 52 46 44 42 38 33 29 30 30 28 26 22 18 16 13 11 12 11 8 2 1 5 5 5 8 8 8 9 6 1 4 4 5 5 7 10 11 8 11 13 15 15
48 53 51 47 42 37 34 30 27 26 26 26 25 23 22 16 9 9 8 10 10 8 6 12 13 10 5 6 7 4 3 3 4 4 4 3 6 8 4 7 8 9 7
37 47 51 49 46 41 37 33 30 27 26 24 24 22 22 23 22 19 12 15 14 15 17 11 3 6 7 8 7 5 5 5 6 5 4 5 3 5 1 2 1 4 6
28 40 44 48 46 44 40 34 33 29 23 22 21 23 23 22 19 16 16 17 21 20 13 7 8 8 11 11 11 12 11 10 10 10 8 7 6 7 6 4 9 9 8
32 37 41 43 43 41 42 40 35 29 29 29 31 28 24 23 19 14 16 17 23 22 17 14 15 16 17 18 18 19 19 20 19 18 15 13 11 10 11 10 12 11 11
29 37 42 42 42 40 38 40 37 34 36 38 34 33 26 27 25 21 20 23 27 25 22 21 20 20 19 18 18 17 17 17 17 16 17 18 16 15 13 18 14 12 16
29 35 39 42 45 44 43 39 41 42 45 44 32 25 27 27 25 22 22 23 23 22 22 22 20 16 13 11 9 7 7 9 10 10 12 14 19 24 27 26 21 22 15
28 33 37 42 45 46 46 46 43 46 47 47 36 28 27 24 24 22 22 21 20 19 17 13 10 7 5 5 5 6 7 8 8 10 10 8 16 24 28 29 27 27 28
30 34 35 40 46 49 47 46 45 47 47 48 41 32 27 24 23 21 19 17 15 13 11 9 6 3 2 3 4 5 7 9 10 12 11 10 12 18 25 27 29 30 30
35 37 39 42 46 49 49 49 48 46 48 44 41 34 29 27 25 21 18 16 15 14 11 9 7 4 2 3 4 5 6 8 8 10 13 13 15 17 20 23 29 30 32
42 42 44 46 49 52 53 53 52 52 50 46 44 40 34 31 26 24 23 21 19 16 13 10 7 6 7 8 9 11 12 12 12 11 11 12 14 18 21 22 24 26 29
47 45 50 50 50 53 57 58 57 56 53 51 49 44 39 37 31 29 26 24 21 17 15 12 9 8 9 10 12 13 16 17 17 16 15 14 15 17 20 22 22 23 24
50 52 49 54 55 57 61 62 62 61 59 57 54 49 46 45 40 35 32 28 25 21 16 13 9 8 9 11 14 17 18 19 20 19 17 16 17 18 19 20 22 24 24
50 52 56 60 62 62 64 67 68 68 66 64 60 56 55 54 48 42 38 34 30 24 19 16 12 11 10 12 17 20 21 20 20 20 18 17 17 19 19 20 21 21 22
54 54 56 60 64 69 70 71 73 74 72 68 66 62 60 59 54 48 44 41 37 31 26 21 17 13 10 12 16 19 21 21 21 22 22 19 17 17 21 22 23 20 20
52 51 54 59 66 71 73 75 79 79 77 74 73 69 66 63 60 55 51 48 43 38 32 27 21 15 11 14 18 21 22 21 22 22 22 21 19 16 16 20 22 22 18
66 59 58 58 65 73 78 78 81 82 81 81 79 75 73 70 68 64 59 56 50 44 37 32 26 19 15 15 18 21 23 23 23 21 19 18 15 15 14 16 15 16 18
86 82 72 68 67 71 77 81 83 85 85 86 85 83 82 78 74 71 67 62 57 51 45 40 34 27 20 17 17 18 21 24 22 16 12 11 12 12 12 13 14 17 20
67 68 67 71 73 72 77 85 87 88 89 90 90 90 90 84 80 78 73 67 64 59 54 48 42 34 26 20 15 15 19 21 19 17 14 13 13 12 11 14 17 18 18
51 55 55 56 66 72 76 84 90 91 93 96 96 95 94 91 87 83 78 75 73 68 63 57 48 39 31 26 18 13 14 16 17 13 12 11 13 14 15 16 16 15 15
32 35 40 49 54 68 79 85 93 97 99 103 101 99 98 95 92 90 86 84 79 75 68 59 53 48 43 34 22 13 10 13 9 9 11 11 8 6 9 14 17 18 16
34 30 34 43 51 57 70 80 91 96 101 103 102 104 102 100 98 96 92 88 83 80 74 69 62 57 51 41 26 17 10 13 22 21 20 16 12 6 7 11 13 14 13
33 26 29 33 45 56 63 73 84 92 92 100 108 108 106 103 101 98 94 91 87 84 81 74 69 62 57 48 39 25 11 12 16 22 28 29 26 17 14 13 14 14 14
46 26 22 32 36 51 63 72 79 84 90 95 99 98 102 103 103 103 100 96 92 86 83 76 71 65 63 57 46 39 33 26 17 14 23 26 29 22 15 13 16 16 16
55 40 35 29 30 40 51 62 70 77 77 81 83 88 97 103 105 105 103 100 96 91 84 80 76 75 69 62 57 47 40 34 28 26 20 23 25 21 17 15 14 11 6
60 55 43 34 31 30 39 55 62 66 74 75 77 80 82 96 102 103 103 101 97 92 91 86 83 79 74 68 62 56 49 44 34 28 29 27 27 24 24 21 18 15 11
Wind_Direction_500mb
191 195 199 200 195 193 196 194 188 189 194 197 202 213 215 212 209 208 198 198 188 214 213 196 190 219 217 197 200 211 115 72 59 46 55 71 91 87 66 53 62 72 62
193 195 198 201 201 198 200 203 203 201 203 205 210 219 228 217 193 213 194 160 154 200 212 222 218 232 210 243 270 298 13 335 329 356 345 46 104 105 92 88 85 79 70
190 197 200 203 207 208 207 208 213 213 216 221 220 222 230 237 232 227 213 180 179 198 218 238 268 295 288 275 276 292 310 314 316 315 319 305 234 176 129 302 341 344 340
183 197 202 204 207 210 210 208 209 214 215 212 214 222 223 222 234 238 232 216 209 224 241 261 257 269 280 286 292 299 302 298 293 290 297 288 274 243 226 280 270 279 305
183 194 200 201 203 205 207 209 212 204 199 212 207 206 216 228 241 228 224 227 235 251 263 264 265 269 272 275 285 290 292 294 292 288 280 272 269 260 251 244 283 285 289
200 198 203 203 203 201 202 206 205 196 201 205 204 216 231 238 246 244 234 229 233 244 255 262 263 265 274 284 288 291 292 292 289 284 275 266 255 251 246 240 238 275 277
216 209 212 209 206 204 204 200 199 197 205 211 222 225 231 239 243 236 230 231 233 239 246 252 258 269 275 281 288 301 307 307 309 302 281 263 250 240 245 248 243 244 255
227 225 221 217 214 214 211 212 210 210 218 230 242 242 237 233 228 227 229 231 233 237 243 243 244 242 256 280 305 321 320 315 318 310 302 279 245 244 246 249 246 249 256
230 232 231 226 221 221 219 219 220 221 225 231 238 239 232 226 222 217 219 221 225 222 210 197 201 206 248 304 315 322 321 326 324 319 309 293 272 262 260 253 251 250 252
235 235 234 230 230 228 226 226 228 228 232 238 240 238 230 222 216 215 221 218 207 197 193 190 191 198 240 290 330 339 344 337 333 312 306 301 294 286 275 266 256 254 256
243 239 235 232 230 228 228 230 231 232 235 235 234 233 228 221 216 217 217 212 209 204 202 214 233 266 289 308 325 338 342 342 338 326 311 292 280 277 281 281 275 268 263
257 253 243 236 232 229 228 229 230 233 235 233 230 230 225 220 218 219 217 213 211 209 215 227 246 274 295 308 317 324 330 335 333 331 325 310 288 275 271 273 277 277 275
269 257 252 245 237 232 228 229 230 231 232 231 229 228 222 220 220 221 219 217 216 216 224 237 253 272 293 313 325 332 335 335 333 332 327 310 291 277 267 267 268 272 276
271 262 252 247 242 238 232 230 231 232 232 232 230 227 223 222 222 221 220 218 221 223 227 233 243 262 288 314 327 332 334 335 333 330 325 314 295 281 269 257 257 261 267
267 261 254 249 245 242 238 235 232 232 234 234 232 229 226 226 226 224 220 221 222 224 226 227 233 248 277 312 331 336 335 333 332 332 326 319 305 283 271 263 254 247 247
279 273 261 251 245 243 240 239 237 235 235 233 233 232 230 228 229 228 226 226 226 226 226 226 229 243 278 317 330 334 334 330 329 328 323 317 312 293 272 258 255 247 245
284 279 272 262 248 243 240 238 237 237 237 236 234 232 231 230 229 228 227 227 227 227 226 228 232 243 265 296 313 324 327 324 322 319 313 305 298 289 277 272 256 238 214
283 279 276 272 260 245 241 239 236 236 235 235 234 233 232 230 230 229 227 226 227 227 226 226 227 232 241 266 295 317 324 322 319 310 300 286 279 274 270 257 247 238 238
289 282 274 267 263 256 241 238 237 237 236 235 234 233 232 231 231 229 228 227 228 228 227 226 227 227 235 251 274 305 320 321 312 300 280 263 258 258 253 252 249 246 248
298 285 275 263 256 250 244 236 235 237 236 235 234 233 232 231 231 229 228 228 229 228 226 226 225 226 230 234 250 280 309 308 293 276 263 256 253 260 264 260 255 255 262
321 289 270 260 253 244 238 234 232 233 233 234 233 232 232 231 230 229 228 228 228 229 230 228 225 225 225 226 229 247 283 288 246 214 191 179 184 217 250 251 251 255 257
334 312 278 255 248 240 237 238 235 234 233 234 233 231 229 229 229 230 229 230 230 229 226 225 225 224 223 222 222 228 240 248 248 231 221 216 216 239 287 259 247 239 231
335 314 294 269 254 251 241 236 235 236 237 236 233 230 229 227 228 229 230 231 232 231 230 228 226 226 228 228 228 223 208 218 198 227 233 235 235 244 280 260 238 220 204
343 292 281 286 269 261 255 246 237 236 237 239 237 234 231 228 228 228 229 230 231 232 230 230 229 227 228 230 229 233 242 241 216 225 229 228 226 233 261 244 219 205 199
1 351 319 298 280 266 258 257 252 247 243 244 242 239 232 229 228 228 228 229 229 229 229 229 227 226 227 229 233 231 235 236 236 236 239 232 233 231 251 236 216 196 196
12 14 12 359 332 299 280 271 263 257 253 245 240 238 235 232 230 231 230 230 230 229 228 226 225 226 227 229 234 241 240 239 240 238 239 239 235 238 232 223 211 200 171
Wind_Speed_850mb
61 52 46 44 42 38 33 29 30 30 28 26 22 18 16 13 11 12 11 8 2 1 5 5 5 8 8 8 9 6 1 4 4 5 5 7 10 11 8 11 13 15 15
48 53 51 47 42 37 34 30 27 26 26 26 25 23 22 16 9 9 8 10 10 8 6 12 13 10 5 6 7 4 3 3 4 4 4 3 6 8 4 7 8 9 7
37 47 51 49 46 41 37 33 30 27 26 24 24 22 22 23 22 19 12 15 14 15 17 11 3 6 7 8 7 5 5 5 6 5 4 5 3 5 1 2 1 4 6
28 40 44 48 46 44 40 34 33 29 23 22 21 23 23 22 19 16 16 17 21 20 13 7 8 8 11 11 11 12 11 10 10 10 8 7 6 7 6 4 9 9 8
32 37 41 43 43 41 42 40 35 29 29 29 31 28 24 23 19 14 16 17 23 22 17 14 15 16 17 18 18 19 19 20 19 18 15 13 11 10 11 10 12 11 11
29 37 42 42 42 40 38 40 37 34 36 38 34 33 26 27 25 21 20 23 27 25 22 21 20 20 19 18 18 17 17 17 17 16 17 18 16 15 13 18 14 12 16
29 35 39 42 45 44 43 39 41 42 45 44 32 25 27 27 25 22 22 23 23 22 22 22 20 16 13 11 9 7 7 9 10 10 12 14 19 24 27 26 21 22 15
28 33 37 42 45 46 46 46 43 46 47 47 36 28 27 24 24 22 22 21 20 19 17 13 10 7 5 5 5 6 7 8 8 10 10 8 16 24 28 29 27 27 28
30 34 35 40 46 49 47 46 45 47 47 48 41 32 27 24 23 21 19 17 15 13 11 9 6 3 2 3 4 5 7 9 10 12 11 10 12 18 25 27 29 30 30
35 37 39 42 46 49 49 49 48 46 48 44 41 34 29 27 25 21 18 16 15 14 11 9 7 4 2 3 4 5 6 8 8 10 13 13 15 17 20 23 29 30 32
42 42 44 46 49 52 53 53 52 52 50 46 44 40 34 31 26 24 23 21 19 16 13 10 7 6 7 8 9 11 12 12 12 11 11 12 14 18 21 22 24 26 29
47 45 50 50 50 53 57 58 57 56 53 51 49 44 39 37 31 29 26 24 21 17 15 12 9 8 9 10 12 13 16 17 17 16 15 14 15 17 20 22 22 23 24
50 52 49 54 55 57 61 62 62 61 59 57 54 49 46 45 40 35 32 28 25 21 16 13 9 8 9 11 14 17 18 19 20 19 17 16 17 18 19 20 22 24 24
50 52 56 60 62 62 64 67 68 68 66 64 60 56 55 54 48 42 38 34 30 24 19 16 12 11 10 12 17 20 21 20 20 20 18 17 17 19 19 20 21 21 22
54 54 56 60 64 69 70 71 73 74 72 68 66 62 60 59 54 48 44 41 37 31 26 21 17 13 10 12 16 19 21 21 21 22 22 19 17 17 21 22 23 20 20
52 51 54 59 66 71 73 75 79 79 77 74 73 69 66 63 60 55 51 48 43 38 32 27 21 15 11 14 18 21 22 21 22 22 22 21 19 16 16 20 22 22 18
66 59 58 58 65 73 78 78 81 82 81 81 79 75 73 70 68 64 59 56 50 44 37 32 26 19 15 15 18 21 23 23 23 21 19 18 15 15 14 16 15 16 18
86 82 72 68 67 71 77 81 83 85 85 86 85 83 82 78 74 71 67 62 57 51 45 40 34 27 20 17 17 18 21 24 22 16 12 11 12 12 12 13 14 17 20
67 68 67 71 73 72 77 85 87 88 89 90 90 90 90 84 80 78 73 67 64 59 54 48 42 34 26 20 15 15 19 21 19 17 14 13 13 12 11 14 17 18 18
51 55 55 56 66 72 76 84 90 91 93 96 96 95 94 91 87 83 78 75 73 68 63 57 48 39 31 26 18 13 14 16 17 13 12 11 13 14 15 16 16 15 15
32 35 40 49 54 68 79 85 93 97 99 103 101 99 98 95 92 90 86 84 79 75 68 59 53 48 43 34 22 13 10 13 9 9 11 11 8 6 9 14 17 18 16
34 30 34 43 51 57 70 80 91 96 101 103 102 104 102 100 98 96 92 88 83 80 74 69 62 57 51 41 26 17 10 13 22 21 20 16 12 6 7 11 13 14 13
33 26 29 33 45 56 63 73 84 92 92 100 108 108 106 103 101 98 94 91 87 84 81 74 69 62 57 48 39 25 11 12 16 22 28 29 26 17 14 13 14 14 14
46 26 22 32 36 51 63 72 79 84 90 95 99 98 102 103 103 103 100 96 92 86 83 76 71 65 63 57 46 39 33 26 17 14 23 26 29 22 15 13 16 16 16
55 40 35 29 30 40 51 62 70 77 77 81 83 88 97 103 105 105 103 100 96 91 84 80 76 75 69 62 57 47 40 34 28 26 20 23 25 21 17 15 14 11 6
60 55 43 34 31 30 39 55 62 66 74 75 77 80 82 96 102 103 103 101 97 92 91 86 83 79 74 68 62 56 49 44 34 28 29 27 27 24 24 21 18 15 11
Wind_Direction_850mb
191 195 199 200 195 193 196 194 188 189 194 197 202 213 215 212 209 208 198 198 188 214 213 196 190 219 217 197 200 211 115 72 59 46 55 71 91 87 66 53 62 72 62
193 195 198 201 201 198 200 203 203 201 203 205 210 219 228 217 193 213 194 160 154 200 212 222 218 232 210 243 270 298 13 335 329 356 345 46 104 105 92 88 85 79 70
190 197 200 203 207 208 207 208 213 213 216 221 220 222 230 237 232 227 213 180 179 198 218 238 268 295 288 275 276 292 310 314 316 315 319 305 234 176 129 302 341 344 340
183 197 202 204 207 210 210 208 209 214 215 212 214 222 223 222 234 238 232 216 209 224 241 261 257 269 280 286 292 299 302 298 293 290 297 288 274 243 226 280 270 279 305
183 194 200 201 203 205 207 209 212 204 199 212 207 206 216 228 241 228 224 227 235 251 263 264 265 269 272 275 285 290 292 294 292 288 280 272 269 260 251 244 283 285 289
200 198 203 203 203 201 202 206 205 196 201 205 204 216 231 238 246 244 234 229 233 244 255 262 263 265 274 284 288 291 292 292 289 284 275 266 255 251 246 240 238 275 277
216 209 212 209 206 204 204 200 199 197 205 211 222 225 231 239 243 236 230 231 233 239 246 252 258 269 275 281 288 301 307 307 309 302 281 263 250 240 245 248 243 244 255
227 225 221 217 214 214 211 212 210 210 218 230 242 242 237 233 228 227 229 231 233 237 243 243 244 242 256 280 305 321 320 315 318 310 302 279 245 244 246 249 246 249 256
230 232 231 226 221 221 219 219 220 221 225 231 238 239 232 226 222 217 219 221 225 222 210 197 201 206 248 304 315 322 321 326 324 319 309 293 272 262 260 253 251 250 252
235 235 234 230 230 228 226 226 228 228 232 238 240 238 230 222 216 215 221 218 207 197 193 190 191 198 240 290 330 339 344 337 333 312 306 301 294 286 275 266 256 254 256
243 239 235 232 230 228 228 230 231 232 235 235 234 233 228 221 216 217 217 212 209 204 202 214 233 266 289 308 325 338 342 342 338 326 311 292 280 277 281 281 275 268 263
257 253 243 236 232 229 228 229 230 233 235 233 230 230 225 220 218 219 217 213 211 209 215 227 246 274 295 308 317 324 330 335 333 331 325 310 288 275 271 273 277 277 275
269 257 252 245 237 232 228 229 230 231 232 231 229 228 222 220 220 221 219 217 216 216 224 237 253 272 293 313 325 332 335 335 333 332 327 310 291 277 267 267 268 272 276
271 262 252 247 242 238 232 230 231 232 232 232 230 227 223 222 222 221 220 218 221 223 227 233 243 262 288 314 327 332 334 335 333 330 325 314 295 281 269 257 257 261 267
267 261 254 249 245 242 238 235 232 232 234 234 232 229 226 226 226 224 220 221 222 224 226 227 233 248 277 312 331 336 335 333 332 332 326 319 305 283 271 263 254 247 247
279 273 261 251 245 243 240 239 237 235 235 233 233 232 230 228 229 228 226 226 226 226 226 226 229 243 278 317 330 334 334 330 329 328 323 317 312 293 272 258 255 247 245
284 279 272 262 248 243 240 238 237 237 237 236 234 232 231 230 229 228 227 227 227 227 226 228 232 243 265 296 313 324 327 324 322 319 313 305 298 289 277 272 256 238 214
283 279 276 272 260 245 241 239 236 236 235 235 234 233 232 230 230 229 227 226 227 227 226 226 227 232 241 266 295 317 324 322 319 310 300 286 279 274 270 257 247 238 238
289 282 274 267 263 256 241 238 237 237 236 235 234 233 232 231 231 229 228 227 228 228 227 226 227 227 235 251 274 305 320 321 312 300 280 263 258 258 253 252 249 246 248
298 285 275 263 256 250 244 236 235 237 236 235 234 233 232 231 231 229 228 228 229 228 226 226 225 226 230 234 250 280 309 308 293 276 263 256 253 260 264 260 255 255 262
321 289 270 260 253 244 238 234 232 233 233 234 233 232 232 231 230 229 228 228 228 229 230 228 225 225 225 226 229 247 283 288 246 214 191 179 184 217 250 251 251 255 257
334 312 278 255 248 240 237 238 235 234 233 234 233 231 229 229 229 230 229 230 230 229 226 225 225 224 223 222 222 228 240 248 248 231 221 216 216 239 287 259 247 239 231
335 314 294 269 254 251 241 236 235 236 237 236 233 230 229 227 228 229 230 231 232 231 230 228 226 226 228 228 228 223 208 218 198 227 233 235 235 244 280 260 238 220 204
343 292 281 286 269 261 255 246 237 236 237 239 237 234 231 228 228 228 229 230 231 232 230 230 229 227 228 230 229 233 242 241 216 225 229 228 226 233 261 244 219 205 199
1 351 319 298 280 266 258 257 252 247 243 244 242 239 232 229 228 228 228 229 229 229 229 229 227 226 227 229 233 231 235 236 236 236 239 232 233 231 251 236 216 196 196
12 14 12 359 332 299 280 271 263 257 253 245 240 238 235 232 230 231 230 230 230 229 228 226 225 226 227 229 234 241 240 239 240 238 239 239 235 238 232 223 211 200 171